• In Sweden
  • List of Countries
  • For 7 days
  • Water Temperature
  • Satellite Maps
  • Weather Map
  • Weather Widgets
  • user-avatar
    Login

    Hourly Weather Balchik

    Today, 21 September, Friday

    Time Temperature Precipitation Wind Pressure Humidity
    00:00 +17°C° 0 mm 2 mps 742 mmHg 84%
    01:00 +17°C° 0 mm 2 mps 742 mmHg 85%
    02:00 +16°C° 0 mm 2 mps 742 mmHg 85%
    03:00 +16°C° 0 mm 2 mps 742 mmHg 85%
    04:00 +16°C° 0 mm 2 mps 741 mmHg 86%
    05:00 +15°C° 0 mm 2 mps 741 mmHg 86%
    06:00 +17°C° 0 mm 2 mps 742 mmHg 79%
    07:00 +18°C° 0 mm 2 mps 742 mmHg 73%
    08:00 +19°C° 0 mm 3 mps 742 mmHg 66%
    09:00 +21°C° 0 mm 3 mps 742 mmHg 58%
    10:00 +24°C° 0 mm 3 mps 742 mmHg 50%
    11:00 +26°C° 0 mm 4 mps 742 mmHg 42%
    12:00 +27°C° 0 mm 4 mps 742 mmHg 41%
    13:00 +27°C° 0 mm 4 mps 742 mmHg 39%
    14:00 +28°C° 0 mm 3 mps 742 mmHg 39%
    15:00 +27°C° 0 mm 3 mps 742 mmHg 42%
    16:00 +26°C° 0 mm 3 mps 742 mmHg 45%
    17:00 +26°C° 0 mm 3 mps 741 mmHg 47%
    18:00 +24°C° 0 mm 3 mps 741 mmHg 55%
    19:00 +21°C° 0 mm 2 mps 741 mmHg 63%
    20:00 +20°C° 0 mm 2 mps 741 mmHg 71%
    21:00 +20°C° 0 mm 1 mps 741 mmHg 74%
    22:00 +20°C° 0 mm 1 mps 741 mmHg 76%
    23:00 +19°C° 0 mm 1 mps 741 mmHg 78%

    Tomorrow, 22 September, Saturday

    Time Temperature Precipitation Wind Pressure Humidity
    00:00 +19°C° 0 mm 1 mps 741 mmHg 78%
    01:00 +18°C° 0 mm 1 mps 741 mmHg 78%
    02:00 +18°C° 0 mm 1 mps 741 mmHg 78%
    03:00 +18°C° 0 mm 1 mps 741 mmHg 77%
    04:00 +18°C° 0 mm 1 mps 740 mmHg 76%
    05:00 +16°C° 0 mm 1 mps 740 mmHg 74%
    06:00 +19°C° 0 mm 1 mps 740 mmHg 68%
    07:00 +20°C° 0 mm 1 mps 740 mmHg 62%
    08:00 +22°C° 0 mm 1 mps 741 mmHg 56%
    09:00 +23°C° 0 mm 1 mps 741 mmHg 48%
    10:00 +25°C° 0 mm 1 mps 741 mmHg 41%
    11:00 +27°C° 0 mm 2 mps 741 mmHg 34%
    12:00 +28°C° 0 mm 2 mps 741 mmHg 32%
    13:00 +29°C° 0 mm 2 mps 741 mmHg 30%
    14:00 +29°C° 0 mm 3 mps 740 mmHg 28%
    15:00 +29°C° 0 mm 3 mps 740 mmHg 31%
    16:00 +28°C° 0 mm 3 mps 740 mmHg 34%
    17:00 +27°C° 0 mm 3 mps 740 mmHg 37%
    18:00 +25°C° 0 mm 3 mps 740 mmHg 44%
    19:00 +22°C° 0 mm 3 mps 740 mmHg 52%
    20:00 +20°C° 0 mm 3 mps 740 mmHg 59%
    21:00 +20°C° 0 mm 3 mps 740 mmHg 60%
    22:00 +20°C° 0 mm 3 mps 740 mmHg 62%
    23:00 +19°C° 0 mm 3 mps 740 mmHg 63%

    Day after tomorrow, 23 September, Sunday

    Time Temperature Precipitation Wind Pressure Humidity
    00:00 +19°C° 0 mm 3 mps 740 mmHg 62%
    01:00 +19°C° 0 mm 3 mps 740 mmHg 60%
    02:00 +19°C° 0 mm 3 mps 740 mmHg 59%
    03:00 +19°C° 0 mm 3 mps 740 mmHg 58%
    04:00 +18°C° 0 mm 3 mps 741 mmHg 57%
    05:00 +18°C° 0 mm 3 mps 741 mmHg 57%
    06:00 +18°C° 0 mm 4 mps 741 mmHg 57%
    07:00 +18°C° 0 mm 4 mps 742 mmHg 58%
    08:00 +19°C° 0 mm 4 mps 742 mmHg 59%
    09:00 +20°C° 0 mm 4 mps 743 mmHg 54%
    10:00 +22°C° 0 mm 4 mps 743 mmHg 50%
    11:00 +23°C° 0 mm 4 mps 743 mmHg 46%
    12:00 +25°C° 0 mm 3 mps 743 mmHg 44%
    13:00 +26°C° 0 mm 2 mps 743 mmHg 42%
    14:00 +27°C° 0 mm 2 mps 743 mmHg 39%
    15:00 +26°C° 0 mm 2 mps 742 mmHg 42%
    16:00 +26°C° 0 mm 2 mps 742 mmHg 44%
    17:00 +25°C° 0 mm 3 mps 742 mmHg 46%
    18:00 +22°C° 0 mm 3 mps 742 mmHg 54%
    19:00 +21°C° 0 mm 3 mps 742 mmHg 62%
    20:00 +19°C° 0 mm 3 mps 743 mmHg 70%
    21:00 +19°C° 0 mm 3 mps 743 mmHg 73%
    22:00 +18°C° 0 mm 3 mps 743 mmHg 76%
    23:00 +18°C° 0 mm 3 mps 742 mmHg 78%

    24 September, Monday

    Time Temperature Precipitation Wind Pressure Humidity
    00:00 +18°C° 0 mm 4 mps 742 mmHg 81%
    01:00 +18°C° 0 mm 4 mps 742 mmHg 83%
    02:00 +18°C° 0 mm 4 mps 741 mmHg 85%
    03:00 +18°C° 0 mm 4 mps 741 mmHg 87%
    04:00 +17°C° 0 mm 5 mps 740 mmHg 88%
    05:00 +17°C° 0 mm 5 mps 740 mmHg 90%
    06:00 +19°C° 0 mm 5 mps 739 mmHg 86%
    07:00 +20°C° 0 mm 6 mps 739 mmHg 81%
    08:00 +21°C° 0 mm 6 mps 739 mmHg 77%
    09:00 +23°C° 0 mm 6 mps 738 mmHg 68%
    10:00 +26°C° 0 mm 7 mps 738 mmHg 58%
    11:00 +28°C° 0 mm 7 mps 738 mmHg 49%
    12:00 +29°C° 0 mm 7 mps 737 mmHg 44%
    13:00 +32°C° 0 mm 7 mps 737 mmHg 39%
    14:00 +33°C° 0 mm 6 mps 736 mmHg 34%
    15:00 +32°C° 0 mm 6 mps 736 mmHg 35%
    16:00 +32°C° 0 mm 6 mps 736 mmHg 36%
    17:00 +30°C° 0 mm 5 mps 736 mmHg 38%
    18:00 +28°C° 0 mm 6 mps 737 mmHg 39%
    19:00 +26°C° 0 mm 7 mps 738 mmHg 40%
    20:00 +23°C° 0 mm 7 mps 739 mmHg 42%
    21:00 +21°C° 0 mm 7 mps 740 mmHg 42%
    22:00 +20°C° 0 mm 7 mps 740 mmHg 42%
    23:00 +17°C° 0 mm 6 mps 741 mmHg 42%

    25 September, Tuesday

    Time Temperature Precipitation Wind Pressure Humidity
    00:00 +17°C° 0 mm 6 mps 742 mmHg 42%
    01:00 +16°C° 0 mm 5 mps 742 mmHg 43%
    02:00 +16°C° 0 mm 5 mps 743 mmHg 44%
    03:00 +15°C° 0.1 mm 4 mps 743 mmHg 47%
    04:00 +15°C° 0.1 mm 4 mps 743 mmHg 51%
    05:00 +14°C° 0.1 mm 4 mps 744 mmHg 54%
    06:00 +14°C° 0.1 mm 3 mps 744 mmHg 55%
    07:00 +14°C° 0.1 mm 3 mps 745 mmHg 55%
    08:00 +14°C° 0.1 mm 3 mps 745 mmHg 55%
    09:00 +14°C° 0 mm 3 mps 745 mmHg 51%
    10:00 +14°C° 0 mm 3 mps 746 mmHg 46%
    11:00 +14°C° 0 mm 4 mps 746 mmHg 41%
    12:00 +15°C° 0 mm 4 mps 746 mmHg 37%
    13:00 +15°C° 0 mm 4 mps 746 mmHg 34%
    14:00 +17°C° 0 mm 4 mps 746 mmHg 30%
    15:00 +17°C° 0 mm 4 mps 746 mmHg 30%
    16:00 +15°C° 0 mm 4 mps 746 mmHg 30%
    17:00 +15°C° 0 mm 4 mps 746 mmHg 30%
    18:00 +14°C° 0 mm 3 mps 747 mmHg 32%
    19:00 +13°C° 0 mm 3 mps 747 mmHg 35%
    20:00 +12°C° 0 mm 2 mps 747 mmHg 37%
    21:00 +12°C° 0 mm 2 mps 747 mmHg 37%
    22:00 +11°C° 0 mm 3 mps 747 mmHg 37%
    23:00 +10°C° 0 mm 3 mps 748 mmHg 37%

    26 September, Wednesday

    Time Temperature Precipitation Wind Pressure Humidity
    00:00 +10°C° 0 mm 3 mps 748 mmHg 38%
    01:00 +9°C° 0 mm 3 mps 747 mmHg 39%
    02:00 +9°C° 0 mm 3 mps 747 mmHg 41%
    03:00 +9°C° 0 mm 2 mps 747 mmHg 42%
    04:00 +8°C° 0 mm 2 mps 747 mmHg 44%
    05:00 +8°C° 0 mm 2 mps 747 mmHg 45%
    06:00 +9°C° 0 mm 2 mps 747 mmHg 44%
    07:00 +10°C° 0 mm 2 mps 747 mmHg 43%
    08:00 +12°C° 0 mm 2 mps 747 mmHg 41%
    09:00 +14°C° 0 mm 2 mps 747 mmHg 37%
    10:00 +15°C° 0 mm 2 mps 747 mmHg 33%
    11:00 +18°C° 0 mm 1 mps 747 mmHg 29%
    12:00 +17°C° 0 mm 2 mps 746 mmHg 28%
    13:00 +18°C° 0 mm 2 mps 746 mmHg 27%
    14:00 +18°C° 0 mm 2 mps 745 mmHg 26%
    15:00 +17°C° 0 mm 2 mps 745 mmHg 28%
    16:00 +17°C° 0 mm 3 mps 745 mmHg 30%
    17:00 +16°C° 0 mm 3 mps 745 mmHg 32%
    18:00 +14°C° 0.1 mm 3 mps 745 mmHg 36%
    19:00 +13°C° 0.1 mm 3 mps 746 mmHg 41%
    20:00 +13°C° 0.1 mm 3 mps 746 mmHg 45%
    21:00 +12°C° 0 mm 3 mps 746 mmHg 46%
    22:00 +11°C° 0 mm 4 mps 746 mmHg 47%
    23:00 +10°C° 0 mm 5 mps 746 mmHg 49%
    Show more